| time (UTC) | temp F | wind direction | speed MPH | gust MPH | rain 1hr in | rain 24hr in | rain mn in | humidity % | barometer mb |
| 20260507014534 | 46 | 277 | 0.0 | 2.0 | 0.00 | 0.00 | 0.00 | 47 | 1014.8 |
| 20260507013032 | 46 | 290 | 0.0 | 2.0 | 0.00 | 0.00 | 0.00 | 47 | 1014.8 |
| 20260507011530 | 45 | 355 | 0.0 | 5.0 | 0.00 | 0.00 | 0.00 | 48 | 1014.7 |
| 20260507010059 | 44 | 327 | 3.0 | 6.0 | 0.00 | 0.00 | 0.00 | 47 | 1014.7 |
| 20260507004600 | 44 | 350 | 4.0 | 8.0 | 0.00 | 0.00 | 0.00 | 47 | 1014.7 |
| 20260507003056 | 44 | 317 | 1.0 | 7.0 | 0.00 | 0.00 | 0.00 | 48 | 1014.7 |
| 20260507001557 | 45 | 25 | 7.0 | 10.0 | 0.00 | 0.00 | 0.00 | 45 | 1014.7 |
| 20260507000055 | 46 | 351 | 3.0 | 9.0 | 0.00 | 0.00 | 0.00 | 45 | 1014.8 |
| 20260506234555 | 46 | 316 | 2.0 | 9.0 | 0.00 | 0.00 | 0.00 | 46 | 1014.7 |
| 20260506233052 | 46 | 320 | 3.0 | 10.0 | 0.00 | 0.00 | 0.00 | 46 | 1014.7 |
| 20260506231551 | 46 | 271 | 5.0 | 10.0 | 0.00 | 0.00 | 0.00 | 44 | 1014.8 |
| 20260506230049 | 46 | 345 | 5.0 | 9.0 | 0.00 | 0.00 | 0.00 | 44 | 1014.8 |
| 20260506224600 | 46 | 307 | 4.0 | 11.0 | 0.00 | 0.00 | 0.00 | 45 | 1015.1 |
| 20260506223045 | 45 | 5 | 6.0 | 12.0 | 0.00 | 0.00 | 0.00 | 44 | 1015.0 |
| 20260506221543 | 46 | 325 | 4.0 | 10.0 | 0.00 | 0.00 | 0.00 | 45 | 1015.0 |
| 20260506220041 | 45 | 360 | 8.0 | 13.0 | 0.00 | 0.00 | 0.00 | 44 | 1015.2 |
| 20260506214558 | 45 | 261 | 4.0 | 10.0 | 0.00 | 0.00 | 0.00 | 44 | 1015.2 |
| 20260506213043 | 45 | 262 | 5.0 | 10.0 | 0.00 | 0.00 | 0.00 | 44 | 1015.2 |
| 20260506211540 | 44 | 309 | 6.0 | 13.0 | 0.00 | 0.00 | 0.00 | 45 | 1015.4 |
| 20260506210040 | 46 | 261 | 4.0 | 13.0 | 0.00 | 0.00 | 0.00 | 44 | 1015.3 |
| 20260506204535 | 45 | 261 | 3.0 | 12.0 | 0.00 | 0.00 | 0.00 | 45 | 1015.4 |
| 20260506203005 | 45 | 325 | 5.0 | 15.0 | 0.00 | 0.00 | 0.00 | 45 | 1015.4 |
| 20260506201504 | 45 | 273 | 6.0 | 13.0 | 0.00 | 0.00 | 0.00 | 45 | 1015.5 |
| 20260506200034 | 44 | 332 | 6.0 | 12.0 | 0.00 | 0.00 | 0.00 | 45 | 1015.5 |
| 20260506194531 | 44 | 270 | 4.0 | 13.0 | 0.00 | 0.00 | 0.00 | 45 | 1015.5 |
| 20260506193029 | 44 | 33 | 7.0 | 16.0 | 0.00 | 0.00 | 0.00 | 45 | 1015.5 |
| 20260506191534 | 44 | 334 | 5.0 | 12.0 | 0.00 | 0.00 | 0.00 | 45 | 1015.6 |
| 20260506190028 | 44 | 311 | 5.0 | 16.0 | 0.00 | 0.00 | 0.00 | 46 | 1015.6 |
| 20260506184531 | 43 | 317 | 5.0 | 11.0 | 0.00 | 0.00 | 0.00 | 46 | 1015.6 |
| 20260506183031 | 43 | 319 | 7.0 | 12.0 | 0.00 | 0.00 | 0.00 | 46 | 1015.6 |
| 20260506183027 | 43 | 313 | 7.0 | 12.0 | 0.00 | 0.00 | 0.00 | 46 | 1015.6 |
| 20260506181524 | 43 | 319 | 5.0 | 13.0 | 0.00 | 0.00 | 0.00 | 47 | 1015.6 |
| 20260506180026 | 43 | 311 | 8.0 | 15.0 | 0.00 | 0.00 | 0.00 | 45 | 1015.6 |
| 20260506174521 | 43 | 297 | 7.0 | 12.0 | 0.00 | 0.00 | 0.00 | 45 | 1015.7 |
| 20260506173018 | 43 | 279 | 7.0 | 14.0 | 0.00 | 0.00 | 0.00 | 44 | 1015.7 |
| 20260506171513 | 44 | 355 | 10.0 | 15.0 | 0.00 | 0.00 | 0.00 | 43 | 1015.6 |
| 20260506170015 | 44 | 289 | 5.0 | 14.0 | 0.00 | 0.00 | 0.00 | 44 | 1015.6 |
| 20260506164508 | 45 | 302 | 5.0 | 10.0 | 0.00 | 0.00 | 0.00 | 44 | 1015.6 |
| 20260506163008 | 44 | 315 | 5.0 | 15.0 | 0.00 | 0.00 | 0.00 | 44 | 1015.6 |
| 20260506161607 | 44 | 287 | 6.0 | 14.0 | 0.00 | 0.00 | 0.00 | 45 | 1015.5 |
| 20260506160055 | 43 | 340 | 6.0 | 12.0 | 0.00 | 0.00 | 0.00 | 46 | 1015.5 |
| 20260506154612 | 43 | 340 | 4.0 | 11.0 | 0.00 | 0.00 | 0.00 | 47 | 1015.4 |
| 20260506153055 | 43 | 334 | 6.0 | 12.0 | 0.00 | 0.00 | 0.00 | 47 | 1015.3 |
| 20260506151532 | 43 | 355 | 3.0 | 11.0 | 0.00 | 0.00 | 0.00 | 49 | 1015.3 |
| 20260506150023 | 43 | 343 | 5.0 | 15.0 | 0.00 | 0.00 | 0.00 | 48 | 1015.4 |
| 20260506144522 | 44 | 355 | 6.0 | 15.0 | 0.00 | 0.00 | 0.00 | 47 | 1015.5 |
| 20260506143020 | 43 | 360 | 6.0 | 12.0 | 0.00 | 0.00 | 0.00 | 48 | 1015.4 |
| 20260506141520 | 43 | 310 | 5.0 | 12.0 | 0.00 | 0.00 | 0.00 | 50 | 1015.4 |
| 20260506140022 | 42 | 21 | 4.0 | 8.0 | 0.00 | 0.00 | 0.00 | 52 | 1015.4 |
| 20260506134513 | 40 | 318 | 3.0 | 6.0 | 0.00 | 0.00 | 0.00 | 55 | 1015.3 |
| 20260506133009 | 41 | 336 | 2.0 | 6.0 | 0.00 | 0.00 | 0.00 | 56 | 1015.2 |
| 20260506131515 | 41 | 313 | 1.0 | 4.0 | 0.00 | 0.00 | 0.00 | 57 | 1015.2 |
| 20260506130008 | 41 | 276 | 0.0 | 3.0 | 0.00 | 0.00 | 0.00 | 59 | 1015.2 |
| 20260506124502 | 40 | 32 | 0.0 | 3.0 | 0.00 | 0.00 | 0.00 | 61 | 1014.8 |
| 20260506123004 | 40 | 167 | 0.0 | 3.0 | 0.00 | 0.00 | 0.00 | 62 | 1014.7 |
| 20260506121559 | 39 | 360 | 0.0 | 2.0 | 0.00 | 0.00 | 0.00 | 64 | 1014.9 |
| 20260506120053 | 35 | 324 | 2.0 | 4.0 | 0.00 | 0.00 | 0.00 | 67 | 1014.4 |
| 20260506114557 | 33 | 355 | 1.0 | 3.0 | 0.00 | 0.00 | 0.00 | 69 | 1014.3 |
| 20260506113052 | 37 | 281 | 0.0 | 1.0 | 0.00 | 0.00 | 0.00 | 65 | 1014.1 |
| 20260506111551 | 34 | 281 | 0.0 | 0.0 | 0.00 | 0.00 | 0.00 | 70 | 1014.3 |
| 20260506110046 | 35 | 281 | 0.0 | 1.0 | 0.00 | 0.00 | 0.00 | 71 | 1014.2 |
| 20260506104545 | 35 | 281 | 0.0 | 1.0 | 0.00 | 0.00 | 0.00 | 68 | 1014.0 |
| 20260506103037 | 36 | 281 | 0.0 | 1.0 | 0.00 | 0.00 | 0.00 | 67 | 1013.8 |
| 20260506101543 | 35 | 281 | 0.0 | 2.0 | 0.00 | 0.00 | 0.00 | 67 | 1013.6 |
| 20260506100033 | 36 | 281 | 0.0 | 0.0 | 0.00 | 0.00 | 0.00 | 67 | 1013.5 |
| 20260506094557 | 36 | 288 | 0.0 | 1.0 | 0.00 | 0.00 | 0.00 | 65 | 1013.5 |
| 20260506093055 | 37 | 324 | 0.0 | 3.0 | 0.00 | 0.00 | 0.00 | 58 | 1013.5 |
| 20260506091522 | 37 | 322 | 0.0 | 4.0 | 0.00 | 0.00 | 0.00 | 60 | 1013.5 |
| 20260506090022 | 37 | 348 | 1.0 | 2.0 | 0.00 | 0.00 | 0.00 | 60 | 1013.4 |
| 20260506084527 | 36 | 355 | 2.0 | 4.0 | 0.00 | 0.00 | 0.00 | 61 | 1013.4 |
| 20260506083014 | 37 | 327 | 3.0 | 6.0 | 0.00 | 0.00 | 0.00 | 60 | 1013.5 |
| 20260506081510 | 37 | 16 | 2.0 | 5.0 | 0.00 | 0.00 | 0.00 | 61 | 1013.2 |
| 20260506073028 | 38 | 14 | 4.0 | 7.0 | 0.00 | 0.00 | 0.00 | 61 | 1012.9 |
| 20260506071521 | 38 | 332 | 3.0 | 7.0 | 0.00 | 0.00 | 0.00 | 61 | 1012.7 |
| 20260506061606 | 40 | 331 | 3.0 | 6.0 | 0.00 | 0.00 | 0.00 | 56 | 1012.2 |
| 20260506044531 | 42 | 349 | 3.0 | 8.0 | 0.00 | 0.00 | 0.00 | 52 | 1011.7 |
| 20260506043027 | 43 | 351 | 5.0 | 9.0 | 0.00 | 0.00 | 0.00 | 51 | 1011.7 |
| 20260506041523 | 43 | 317 | 5.0 | 8.0 | 0.00 | 0.00 | 0.00 | 51 | 1011.4 |
| 20260506040029 | 44 | 360 | 5.0 | 10.0 | 0.00 | 0.00 | 0.00 | 49 | 1011.3 |
| 20260506034510 | 45 | 5 | 4.0 | 12.0 | 0.00 | 0.00 | 0.00 | 47 | 1011.2 |
| 20260506033003 | 45 | 360 | 4.0 | 9.0 | 0.00 | 0.00 | 0.00 | 45 | 1011.0 |
| 20260506031558 | 46 | 323 | 2.0 | 6.0 | 0.00 | 0.00 | 0.00 | 44 | 1011.0 |
| 20260506030049 | 46 | 314 | 2.0 | 5.0 | 0.00 | 0.00 | 0.00 | 43 | 1011.0 |
| 20260506024548 | 47 | 324 | 2.0 | 4.0 | 0.00 | 0.00 | 0.00 | 43 | 1010.8 |
| 20260506023054 | 48 | 335 | 2.0 | 5.0 | 0.00 | 0.00 | 0.00 | 41 | 1010.5 |
| 20260506021547 | 48 | 283 | 1.0 | 5.0 | 0.00 | 0.00 | 0.00 | 42 | 1010.3 |
| 20260506020040 | 48 | 309 | 2.0 | 5.0 | 0.00 | 0.00 | 0.00 | 41 | 1010.2 |